Tracking 17138 objects as of 7-July-2015
HD Live streaming from Space Station

TANSUO 2

Track TANSUO 2 now!
10-day predictions
TANSUO 2 is classified as:


NORAD ID: 28479
Int'l Code: 2004-046A
Perigee: 692.0 km
Apogee: 706.9 km
Inclination: 98.2 °
Period: 98.6 minutes
Semi major axis: 7070 km
RCS: 1.44 m2 (large)
Launch date: November 18, 2004
Source: People's Republic of China (PRC)
Your satellite tracking list
Your tracking list is empty





NASA's NSSDC Master Catalog

Two Line Element Set (TLE):
1 28479U 04046A   15188.39914695  .00000498  00000-0  11295-3 0  9995
2 28479 098.2364 199.3647 0010534 177.8286 182.2971 14.60265402565786

Source of the keplerian elements: AFSPC

N2YO: 311